Tracking 25953 objects as of 15-Aug-2022
HD Live streaming from Space Station
objects crossing your sky now

SL-3 R/B

Track SL-3 R/B now!
10-day predictions
SL-3 R/B is classified as:


NORAD ID: 4814
Int'l Code: 1970-113B
Perigee: 434.3 km
Apogee: 464.0 km
Inclination: 81.1 °
Period: 93.4 minutes
Semi major axis: 6820 km
RCS: 6.542 m2 (large)
Launch date: December 18, 1970
Source: Commonwealth of Independent States (former USSR) (CIS)
Launch site: PLESETSK MISSILE AND SPACE COMPLEX (PKMTR)

Note: This is a ROCKET BODY
aabbcc
Your satellite tracking list
Your tracking list is empty




NASA's NSSDC Master Catalog

Two Line Element Set (TLE):
1 04814U 70113B   22226.86992960  .00006746  00000-0  15951-3 0  9999
2 04814  81.1387 287.2740 0021751  71.9552 288.4057 15.41379543824259
Source of the keplerian elements: AFSPC